Regional Weather Roundup
Issued by NWS

Home | Current Version | Previous Version | Graphics & Text | Print | Product List | Glossary On
Versions: 1 2 3 4 5 6 7 8 9 10 11 12 13 14 15 16 17 18 19 20 21 22 23 24 25 26 27 28 29 30 31 32 33 34 35 36 37 38 39 40 41 42 43 44 45 46 47 48 49 50
064
ASUS43 KTOP 290308
RWRKS

WEATHER ROUNDUP FOR KANSAS
NATIONAL WEATHER SERVICE GOODLAND KS
1000 PM CDT SUN MAY 28 2017

NOTE:  "FAIR" INDICATES FEW OR NO CLOUDS BELOW 12,000 FEET WITH NO
SIGNIFICANT WEATHER AND/OR OBSTRUCTIONS TO VISIBILITY.

KSZ001>006-013>018-027>032-041>047-290400-
NORTHWEST KANSAS

CITY           SKY/WX    TMP DP  RH WIND       PRES   REMARKS
GOODLAND       CLEAR     59  46  62 W7        30.10R
HAYS           CLEAR     67  50  54 NE5       30.02R
HILL CITY      CLEAR     61  55  81 NW3       30.03R
RUSSELL        CLEAR     66  52  60 CALM      30.00R
$$

KSZ061>065-074>080-084>089-290400-
SOUTHWEST KANSAS

CITY           SKY/WX    TMP DP  RH WIND       PRES   REMARKS
DODGE CITY     CLEAR     63  42  46 S6        30.06S
ELKHART          N/A     63  38  39 MISG        N/A
GARDEN CITY    CLEAR     67  36  31 N3        30.08S
GREAT BEND     PTCLDY    63  51  65 SW8       30.01F
LIBERAL        CLEAR     63  48  58 W6        30.10S
PRATT          CLEAR     64  48  56 CALM      30.03S HAZE
$$

KSZ066>073-081>083-090>101-290400-
SOUTHEAST KANSAS

CITY           SKY/WX    TMP DP  RH WIND       PRES   REMARKS
CHANUTE        CLEAR     59  52  77 W3        29.95R
COFFEYVILLE    CLEAR     64  57  78 S5        29.95R
HUTCHINSON     CLEAR     58  52  80 CALM      29.99S
MEDICINE LODGE   N/A     64  48  56 CALM      30.01R
NEWTON         CLEAR     68  47  46 W5        29.99F
PARSONS        CLEAR     59  54  83 CALM      29.96R
WICHITA INTL   CLEAR     69  47  45 NW6       29.98S
WICHITA JABRA  CLEAR     68  45  43 NW6       29.98S
WICHITA MCCONL CLEAR     72  41  33 NW6       29.98S
WINFIELD       CLEAR     65  48  54 NW5       29.98R
$$

KSZ007>012-019>026-033>040-048>060-102>105-290400-
NORTHEAST KANSAS

CITY           SKY/WX    TMP DP  RH WIND       PRES   REMARKS
CONCORDIA      CLEAR     64  53  67 W5        29.96S
EMPORIA        CLEAR     66  52  60 W5        29.94F
LAWRENCE       CLEAR     63  57  81 NW3       29.91R
MANHATTAN      CLEAR     66  55  67 W6        29.94R
MARYSVILLE     CLEAR     64  46  52 CALM      29.94S
OLATHE IND     CLEAR     67  52  58 SW6       29.92R
OLATHE EXE     CLEAR     66  53  63 CALM      29.92R
SALINA         CLEAR     69  54  58 W9        29.97R
TOPEKA BILLARD CLEAR     71  52  50 NW5       29.91R
TOPEKA FORBES  CLEAR     65  54  67 W9        29.91S
$$




USA.gov is the U.S. government's official web portal to all federal, state and local government web resources and services.